• MPC Preparation (Info)

  • MPEC 2000-J24 : 2000 JF5

    The following Minor Planet Electronic Circular may be linked-to from your own Web pages, but must not otherwise be redistributed electronically.

    A form allowing access to any MPEC is at the bottom of this page.


    Read MPEC 2000-J23 Read MPEC 2000-J25


    M.P.E.C. 2000-J24                                Issued 2000 May 6, 20:14 UT
    
         The Minor Planet Electronic Circulars contain information on unusual
             minor planets and routine data on comets.  They are published
       on behalf of Commission 20 of the International Astronomical Union by the
              Minor Planet Center, Smithsonian Astrophysical Observatory,
                              Cambridge, MA 02138, U.S.A.
    
                 Prepared using the Tamkin Foundation Computer Network
    
                 BMARSDEN@CFA.HARVARD.EDU or GWILLIAMS@CFA.HARVARD.EDU
              URL http://cfa-www.harvard.edu/iau/mpc.html  ISSN 1523-6714
    
                                       2000 JF5
    
    Observations:
         K00J05F* C2000 05 01.37061 17 10 15.26 +27 03 11.9          18.2        704
         K00J05F  C2000 05 01.38271 17 10 25.28 +27 03 14.2          18.5        704
         K00J05F  C2000 05 01.39481 17 10 35.34 +27 03 16.5          18.0        704
         K00J05F  C2000 05 01.40689 17 10 45.36 +27 03 18.3          18.6        704
         K00J05F  C2000 05 01.41897 17 10 55.45 +27 03 19.6          18.1        704
         K00J05F  C2000 05 02.26935 17 24 13.31 +27 02 39.8          18.0        704
         K00J05F  C2000 05 02.28170 17 24 25.21 +27 02 38.7          18.4        704
         K00J05F  C2000 05 02.29404 17 24 37.14 +27 02 37.7          19.0        704
         K00J05F  C2000 05 02.30637 17 24 49.09 +27 02 36.8          19.2        704
         K00J05F  C2000 05 02.31872 17 25 01.04 +27 02 35.6          18.5        704
         K00J05F  C2000 05 02.34098 17 25 22.56 +27 02 32.9          18.0        704
         K00J05F  C2000 05 02.35302 17 25 34.24 +27 02 30.1          18.1        704
         K00J05F  C2000 05 02.36506 17 25 45.91 +27 02 27.4          18.8        704
         K00J05F  C2000 05 02.37711 17 25 57.59 +27 02 24.3          18.5        704
         K00J05F  C2000 05 03.01065 17 37 11.70 +26 56 51.4                      046
         K00J05F  C2000 05 03.01354 17 37 14.89 +26 56 50.0          17.7 R      046
         K00J05F  C2000 05 03.01400 17 37 15.29 +26 56 50.0                      046
         K00J05F  C2000 05 03.01445 17 37 15.82 +26 56 48.9                      046
         K00J05F pC2000 05 03.03108 17 37 33.61 +26 56 40.9                      118
         K00J05F pC2000 05 03.03184 17 37 34.35 +26 56 40.0                      118
         K00J05F pC2000 05 03.03556 17 37 38.53 +26 56 37.3                      118
         K00J05F pC2000 05 03.03681 17 37 39.81 +26 56 36.9                      118
         K00J05F  C2000 05 03.08521 17 38 32.86 +26 55 59.6                      557
         K00J05F  C2000 05 03.08579 17 38 33.52 +26 55 59.1          18.4 V      557
         K00J05F  C2000 05 03.08698 17 38 34.85 +26 55 58.3                      557
         K00J05F  C2000 05 03.08757 17 38 35.45 +26 55 57.7                      557
         K00J05F  C2000 05 03.39472 17 44 32.39 +26 52 05.4          18.4        704
         K00J05F  C2000 05 03.40696 17 44 46.35 +26 51 52.3          18.5        704
         K00J05F  C2000 05 03.43158 17 45 14.50 +26 51 27.3          18.7        704
         K00J05F  C2000 05 03.98887 17 56 52.77 +26 39 06.3          17.6 R      046
         K00J05F  C2000 05 03.98984 17 56 54.00 +26 39 04.1                      046
         K00J05F  C2000 05 03.99052 17 56 54.89 +26 39 03.6                      046
         K00J05F  C2000 05 03.99109 17 56 55.63 +26 39 03.1          17.4 R      046
         K00J05F  C2000 05 03.99185 17 56 56.52 +26 39 01.3                      046
         K00J05F  C2000 05 04.02599 17 57 39.91 +26 38 10.4                      557
         K00J05F  C2000 05 04.02652 17 57 40.59 +26 38 09.6                      557
         K00J05F  C2000 05 04.02705 17 57 41.28 +26 38 08.7                      557
         K00J05F  C2000 05 04.02759 17 57 41.92 +26 38 08.0          18.6 V      557
         K00J05F  C2000 05 04.33888 18 04 41.44 +26 29 36.2                      651
         K00J05F  C2000 05 04.33984 18 04 42.75 +26 29 33.6          18.3 V      651
         K00J05F  C2000 05 04.34228 18 04 46.06 +26 29 29.2          18.4 V      651
         K00J05F  C2000 05 04.38169 18 05 38.12 +26 28 14.8          18.4        704
         K00J05F  C2000 05 04.39370 18 05 54.22 +26 27 52.4          18.4        704
         K00J05F  C2000 05 04.40602 18 06 10.64 +26 27 29.0          18.5        704
         K00J05F  C2000 05 04.41815 18 06 26.89 +26 27 04.7          18.8        704
         K00J05F FC2000 05 05.00716 18 20 45.70 +26 02 45.9                      611
         K00J05F FC2000 05 05.01855 18 21 02.60 +26 02 14.9                      611
         K00J05F FC2000 05 05.01983 18 21 04.55 +26 02 11.6                      611
         K00J05F FC2000 05 05.02595 18 21 13.58 +26 01 55.3                      611
         K00J05F  C2000 05 05.08140 18 22 35.61 +25 59 21.5                      557
         K00J05F  C2000 05 05.08188 18 22 36.38 +25 59 20.3                      557
         K00J05F  C2000 05 05.08235 18 22 37.07 +25 59 18.0                      557
         K00J05F  C2000 05 05.08282 18 22 37.78 +25 59 17.3                      557
         K00J05F  C2000 05 05.08330 18 22 38.46 +25 59 15.5          18.3 V      557
         K00J05F IC2000 05 05.91794 18 45 22.31 +25 08 27.9                      540
         K00J05F  C2000 05 05.92006 18 45 25.86 +25 08 19.5                      540
         K00J05F  C2000 05 05.92211 18 45 29.50 +25 08 10.5                      540
         K00J05F  C2000 05 05.92431 18 45 33.22 +25 08 00.8                      540
         K00J05F  C2000 05 06.04550 18 49 00.14 +24 59 16.5          17.9 R      046
         K00J05F  C2000 05 06.04606 18 49 01.15 +24 59 15.2                      046
         K00J05F  C2000 05 06.04797 18 49 04.43 +24 59 05.3                      046
         K00J05F  C2000 05 06.04911 18 49 06.39 +24 58 59.6                      046
    
    Observer details:
    046 Klet.  Observers J. Ticha, M. Tichy, Z. Moravec.  0.57-m f/5.2 reflector
        + CCD.
    118 Modra.  Observers L. Kornos, J. Toth.  0.6-m f/5.5 reflector + CCD.
    540 Linz.  Observers E. Meyer, E. Obermair, H. Raab.  0.6-m f/3.0 reflector
        + CCD.
    557 Ondrejov.  Observers P. Pravec, P. Kusnirak.  0.65-m f/3.6 reflector + CCD.
    611 Starkenburg.  Observer R. Stoss.  0.45-m f/4.4 reflector + CCD.
    651 Grasslands Observatory, Tucson.  Observer J. E. McGaha.  0.62-m f/5.1
        reflector + CCD.
    704 Lincoln Laboratory ETS, New Mexico.  Observers M. Blythe, F. Shelly,
        M. Bezpalko, M. Elowitz, R. Huber.  Measurers J. Stuart, H. Viggh,
        R. Sayer, J. B. Evans.  1.0-m f/2.15 reflector + CCD.
    
    Orbital elements:
    2000 JF5                                                             PHA 0.018
    Epoch 2000 Apr. 26.0 TT = JDT 2451660.5                 Williams
    M 344.51591              (2000.0)            P               Q
    n   0.33248998     Peri.  216.87895     +0.07273642     +0.97667331
    a   2.0635595      Node    58.13327     -0.84883979     +0.16697546
    e   0.5586564      Incl.   13.76214     -0.52362241     -0.13501273
    P   2.96           H   21.9           G   0.15
    From 62 observations 2000 May 1-6.
    
    Ephemeris:
    2000 JF5                 a,e,i = 2.06, 0.56, 14                  q = 0.9107
    Date    TT    R. A. (2000) Decl.     Delta      r     Elong.  Phase     V
    2000 04 26    16 16.00   +26 03.7    0.129    1.095   130.7    44.2    19.4
    2000 04 28    16 31.81   +26 32.1    0.114    1.081   128.6    46.7    19.1
    2000 04 30    16 52.35   +26 55.0    0.099    1.068   125.9    49.8    18.9
    2000 05 02    17 19.75   +27 03.8    0.085    1.055   122.2    54.0    18.6
    2000 05 04    17 57.04   +26 39.7    0.072    1.043   116.9    59.6    18.4
    2000 05 06    18 47.60   +25 03.8    0.061    1.031   109.4    67.4    18.3
    2000 05 08    19 52.42   +21 17.2    0.054    1.019    99.0    78.1    18.3
    2000 05 10    21 05.11   +14 50.7    0.051    1.008    86.4    90.7    18.7
    2000 05 12    22 12.95   +07 06.3    0.054    0.997    74.5   102.5    19.3
    2000 05 14    23 07.35   +00 14.3    0.062    0.987    65.6   111.1    20.1
    2000 05 16    23 47.86   -04 52.1    0.072    0.977    60.2   116.1    20.7
    2000 05 18    00 17.64   -08 25.7    0.085    0.968    57.2   118.5    21.2
    2000 05 20    00 39.92   -10 53.3    0.099    0.959    55.7   119.4    21.6
    2000 05 22    00 57.04   -12 36.5    0.114    0.951    55.1   119.3    21.9
    2000 05 24    01 10.59   -13 49.6    0.130    0.944    55.0   118.6    22.1
    2000 05 26    01 21.60   -14 41.7    0.146    0.937    55.2   117.5    22.2
    
    Gareth V. Williams           (C) Copyright 2000 MPC           M.P.E.C. 2000-J24
    

    Read MPEC 2000-J23 Read MPEC 2000-J25


    MPEC number:

    Enter an MPEC number in one of the following forms:

    • 1997-B01 (the full form)
    • J97B01 (the packed version of the full form)
    • B01 (the abbreviated form)